sat.trackr.live / text

‹ back to catalog

STARLINK-33700

NORAD 63484 · 2025-070AA

PAYLOAD ACTIVE UNKNOWN

§ Identity

Operator
Country
US
Launch date
2025-04-06
Launch site
AFETR
Launch vehicle
Mass (kg)
RCS (m²)

Purposes: comms

External: N2YO · Heavens-Above · Gunter

§ Orbital elements

Epoch: 2026-09-20T23:22:05.109600Z

Period
94.27 min
Inclination
43.0018°
Eccentricity
0.0000319
Mean motion
15.27582673 rev/d
Perigee alt
482.8 km
Apogee alt
483.3 km
Semi-major
6,861.2 km
B*
3.9121e-4
RAAN
236.8243°
Arg perigee
277.7004°
Mean anomaly
82.3811°
Rev number
8,284

§ Raw data

STARLINK-337001 63484U 25070AA  26263.97367025  .00010519  00000+0  39121-3 0  99912 63484  43.0018 236.8243 0000319 277.7004  82.3811 15.27582673 82842

JSON: /api/v1/satellites/63484 · /tle

For live sub-satellite position, see the globe view (requires WebGL).

§ Visibility from observer

Set your observer location to see the next 7 days of passes ≥ 10°. The values pass through the URL so the page stays shareable.

No JS? Fill the form by hand. The geolocation button needs JavaScript.